| time (UTC) | temp C | wind direction | speed KPH | gust KPH | rain 1hr cm | rain 24hr cm | rain mn cm | humidity % | barometer mb |
| 20260509005543 | 5 | 0 | 0.0 | 0.0 | 0.00 | 0.00 | 0.00 | 94 | 1019.9 |
| 20260509005043 | 5 | 0 | 0.0 | 0.0 | 0.00 | 0.00 | 0.00 | 94 | 1019.8 |
| 20260509004553 | 5 | 0 | 0.0 | 0.0 | 0.00 | 0.00 | 0.00 | 94 | 1019.7 |
| 20260509004043 | 6 | 0 | 0.0 | 0.0 | 0.00 | 0.00 | 0.00 | 94 | 1019.8 |
| 20260509003543 | 6 | 0 | 0.0 | 0.0 | 0.00 | 0.00 | 0.00 | 94 | 1019.8 |
| 20260509003058 | 6 | 0 | 0.0 | 0.0 | 0.00 | 0.00 | 0.00 | 94 | 1019.8 |
| 20260509002545 | 6 | 0 | 0.0 | 0.0 | 0.00 | 0.00 | 0.00 | 94 | 1019.9 |
| 20260509002045 | 6 | 0 | 0.0 | 0.0 | 0.00 | 0.00 | 0.00 | 94 | 1019.8 |
| 20260509001552 | 6 | 0 | 0.0 | 0.0 | 0.00 | 0.00 | 0.00 | 94 | 1019.8 |
| 20260509001046 | 6 | 0 | 0.0 | 0.0 | 0.00 | 0.00 | 0.00 | 94 | 1019.9 |
| 20260509000542 | 6 | 0 | 0.0 | 0.0 | 0.00 | 0.00 | 0.00 | 94 | 1019.8 |
| 20260509000056 | 6 | 0 | 0.0 | 0.0 | 0.00 | 0.00 | 0.00 | 94 | 1019.8 |
| 20260508235543 | 6 | 0 | 0.0 | 0.0 | 0.00 | 0.00 | 0.00 | 94 | 1019.9 |
| 20260508235042 | 6 | 0 | 0.0 | 0.0 | 0.00 | 0.00 | 0.00 | 94 | 1019.9 |
| 20260508234549 | 6 | 0 | 0.0 | 0.0 | 0.00 | 0.00 | 0.00 | 94 | 1019.9 |
| 20260508234042 | 6 | 0 | 0.0 | 0.0 | 0.00 | 0.00 | 0.00 | 94 | 1019.8 |
| 20260508233542 | 6 | 0 | 0.0 | 0.0 | 0.00 | 0.00 | 0.00 | 94 | 1019.8 |
| 20260508233052 | 6 | 0 | 0.0 | 0.0 | 0.00 | 0.00 | 0.00 | 93 | 1019.7 |
| 20260508232545 | 6 | 0 | 0.0 | 0.0 | 0.00 | 0.00 | 0.00 | 93 | 1019.7 |
| 20260508232045 | 6 | 0 | 0.0 | 0.0 | 0.00 | 0.00 | 0.00 | 93 | 1019.6 |
| 20260508231554 | 6 | 0 | 0.0 | 0.0 | 0.00 | 0.00 | 0.00 | 93 | 1019.6 |
| 20260508231045 | 7 | 0 | 0.0 | 0.0 | 0.00 | 0.00 | 0.00 | 93 | 1019.6 |
| 20260508230546 | 7 | 0 | 0.0 | 0.0 | 0.00 | 0.00 | 0.00 | 93 | 1019.6 |
| 20260508230058 | 7 | 0 | 0.0 | 0.0 | 0.00 | 0.00 | 0.00 | 93 | 1019.7 |
| 20260508225543 | 7 | 0 | 0.0 | 0.0 | 0.00 | 0.00 | 0.00 | 93 | 1019.6 |
| 20260508225043 | 7 | 0 | 0.0 | 0.0 | 0.00 | 0.00 | 0.00 | 93 | 1019.6 |
| 20260508224604 | 7 | 0 | 0.0 | 0.0 | 0.00 | 0.00 | 0.00 | 93 | 1019.7 |
| 20260508224042 | 7 | 0 | 0.0 | 0.0 | 0.00 | 0.00 | 0.00 | 93 | 1019.7 |
| 20260508223547 | 7 | 0 | 0.0 | 0.0 | 0.00 | 0.00 | 0.00 | 93 | 1019.8 |
| 20260508223047 | 7 | 0 | 0.0 | 0.0 | 0.00 | 0.00 | 0.00 | 92 | 1019.7 |
| 20260508222543 | 7 | 0 | 0.0 | 0.0 | 0.00 | 0.00 | 0.00 | 92 | 1019.8 |
| 20260508222042 | 7 | 0 | 0.0 | 0.0 | 0.00 | 0.00 | 0.00 | 92 | 1019.8 |
| 20260508221602 | 7 | 0 | 0.0 | 0.0 | 0.00 | 0.00 | 0.00 | 92 | 1019.8 |
| 20260508221047 | 7 | 0 | 0.0 | 0.0 | 0.00 | 0.00 | 0.00 | 92 | 1019.8 |
| 20260508220546 | 7 | 0 | 0.0 | 0.0 | 0.00 | 0.00 | 0.00 | 92 | 1019.9 |
| 20260508220050 | 7 | 0 | 0.0 | 0.0 | 0.00 | 0.00 | 0.00 | 92 | 1019.8 |
| 20260508215546 | 7 | 0 | 0.0 | 0.0 | 0.00 | 0.00 | 0.00 | 91 | 1020.0 |
| 20260508215045 | 8 | 0 | 0.0 | 0.0 | 0.00 | 0.00 | 0.00 | 91 | 1019.9 |
| 20260508214551 | 8 | 0 | 0.0 | 0.0 | 0.00 | 0.00 | 0.00 | 91 | 1019.9 |
| 20260508214045 | 8 | 0 | 0.0 | 0.0 | 0.00 | 0.00 | 0.00 | 91 | 1019.9 |
| 20260508213544 | 8 | 0 | 0.0 | 0.0 | 0.00 | 0.00 | 0.00 | 91 | 1019.9 |
| 20260508213110 | 8 | 0 | 0.0 | 0.0 | 0.00 | 0.00 | 0.00 | 91 | 1019.9 |
| 20260508212545 | 8 | 0 | 0.0 | 0.0 | 0.00 | 0.00 | 0.00 | 90 | 1020.0 |
| 20260508212045 | 8 | 0 | 0.0 | 0.0 | 0.00 | 0.00 | 0.00 | 90 | 1020.1 |
| 20260508211551 | 8 | 0 | 0.0 | 0.0 | 0.00 | 0.00 | 0.00 | 90 | 1020.0 |
| 20260508211046 | 8 | 0 | 0.0 | 0.0 | 0.00 | 0.00 | 0.00 | 90 | 1020.0 |
| 20260508210544 | 8 | 0 | 0.0 | 0.0 | 0.00 | 0.00 | 0.00 | 89 | 1020.0 |
| 20260508210049 | 8 | 0 | 0.0 | 0.0 | 0.00 | 0.00 | 0.00 | 89 | 1019.9 |
| 20260508205544 | 8 | 0 | 0.0 | 0.0 | 0.00 | 0.00 | 0.00 | 88 | 1019.9 |
| 20260508205045 | 9 | 0 | 0.0 | 0.0 | 0.00 | 0.00 | 0.00 | 88 | 1019.8 |
| 20260508204551 | 9 | 0 | 0.0 | 0.0 | 0.00 | 0.00 | 0.00 | 88 | 1020.0 |
| 20260508204041 | 9 | 0 | 0.0 | 0.0 | 0.00 | 0.00 | 0.00 | 87 | 1019.9 |
| 20260508203541 | 9 | 0 | 0.0 | 0.0 | 0.00 | 0.00 | 0.00 | 87 | 1019.9 |
| 20260508203114 | 10 | 0 | 0.0 | 0.0 | 0.00 | 0.00 | 0.00 | 87 | 1019.8 |
| 20260508202545 | 10 | 0 | 0.0 | 0.0 | 0.00 | 0.00 | 0.00 | 87 | 1019.8 |
| 20260508202045 | 10 | 0 | 0.0 | 0.0 | 0.00 | 0.00 | 0.00 | 86 | 1019.8 |
| 20260508201551 | 10 | 0 | 0.0 | 0.0 | 0.00 | 0.00 | 0.00 | 86 | 1019.6 |
| 20260508201045 | 10 | 0 | 0.0 | 0.0 | 0.00 | 0.00 | 0.00 | 85 | 1019.7 |
| 20260508200545 | 10 | 0 | 0.0 | 0.0 | 0.00 | 0.00 | 0.00 | 84 | 1019.6 |
| 20260508200054 | 10 | 0 | 0.0 | 0.0 | 0.00 | 0.00 | 0.00 | 84 | 1019.7 |
| 20260508195544 | 10 | 0 | 0.0 | 0.0 | 0.00 | 0.00 | 0.00 | 83 | 1019.7 |
| 20260508195045 | 11 | 0 | 0.0 | 0.0 | 0.00 | 0.00 | 0.00 | 83 | 1019.7 |
| 20260508194553 | 11 | 0 | 0.0 | 0.0 | 0.00 | 0.00 | 0.00 | 82 | 1019.8 |
| 20260508194045 | 11 | 0 | 0.0 | 0.0 | 0.00 | 0.00 | 0.00 | 81 | 1019.7 |
| 20260508193544 | 11 | 0 | 0.0 | 0.0 | 0.00 | 0.00 | 0.00 | 80 | 1019.7 |
| 20260508193123 | 11 | 0 | 0.0 | 0.0 | 0.00 | 0.00 | 0.00 | 79 | 1019.7 |
| 20260508192541 | 11 | 0 | 0.0 | 0.0 | 0.00 | 0.00 | 0.00 | 79 | 1019.6 |
| 20260508192044 | 12 | 0 | 0.0 | 0.0 | 0.00 | 0.00 | 0.00 | 78 | 1019.6 |
| 20260508191552 | 12 | 0 | 0.0 | 1.6 | 0.00 | 0.00 | 0.00 | 77 | 1019.4 |
| 20260508191044 | 12 | 0 | 0.0 | 1.6 | 0.00 | 0.00 | 0.00 | 76 | 1019.4 |
| 20260508190545 | 12 | 0 | 0.0 | 0.0 | 0.00 | 0.00 | 0.00 | 76 | 1019.4 |
| 20260508190055 | 12 | 0 | 0.0 | 0.0 | 0.00 | 0.00 | 0.00 | 75 | 1019.2 |
| 20260508185546 | 12 | 0 | 0.0 | 4.8 | 0.00 | 0.00 | 0.00 | 75 | 1019.1 |
| 20260508185045 | 12 | 0 | 0.0 | 4.8 | 0.00 | 0.00 | 0.00 | 74 | 1019.1 |
| 20260508184626 | 12 | 0 | 0.0 | 0.0 | 0.00 | 0.00 | 0.00 | 74 | 1019.0 |
| 20260508184041 | 12 | 0 | 0.0 | 3.2 | 0.00 | 0.00 | 0.00 | 73 | 1019.0 |
| 20260508183544 | 12 | 0 | 0.0 | 4.8 | 0.00 | 0.00 | 0.00 | 72 | 1019.0 |
| 20260508183051 | 13 | 0 | 0.0 | 8.0 | 0.00 | 0.00 | 0.00 | 72 | 1019.0 |
| 20260508182543 | 13 | 0 | 0.0 | 8.0 | 0.00 | 0.00 | 0.00 | 72 | 1018.9 |
| 20260508182041 | 13 | 0 | 0.0 | 8.0 | 0.00 | 0.00 | 0.00 | 71 | 1018.9 |
| 20260508181550 | 13 | 0 | 0.0 | 8.0 | 0.00 | 0.00 | 0.00 | 70 | 1018.9 |
| 20260508181044 | 13 | 0 | 1.6 | 9.7 | 0.00 | 0.00 | 0.00 | 70 | 1018.9 |
| 20260508180542 | 13 | 0 | 3.2 | 9.7 | 0.00 | 0.00 | 0.00 | 70 | 1018.8 |
| 20260508175544 | 13 | 0 | 0.0 | 12.9 | 0.00 | 0.00 | 0.00 | 69 | 1018.9 |
| 20260508175042 | 13 | 0 | 0.0 | 12.9 | 0.00 | 0.00 | 0.00 | 68 | 1018.8 |
| 20260508174611 | 13 | 0 | 1.6 | 11.3 | 0.00 | 0.00 | 0.00 | 68 | 1018.8 |
| 20260508174044 | 13 | 36 | 0.0 | 9.7 | 0.00 | 0.00 | 0.00 | 68 | 1018.7 |
| 20260508173542 | 14 | 0 | 0.0 | 9.7 | 0.00 | 0.00 | 0.00 | 68 | 1018.6 |
| 20260508173110 | 14 | 0 | 0.0 | 8.0 | 0.00 | 0.00 | 0.00 | 68 | 1018.7 |
| 20260508172547 | 14 | 0 | 0.0 | 16.1 | 0.00 | 0.00 | 0.00 | 68 | 1018.6 |
| 20260508172045 | 14 | 0 | 0.0 | 16.1 | 0.00 | 0.00 | 0.00 | 68 | 1018.6 |
| 20260508171615 | 14 | 37 | 1.6 | 11.3 | 0.00 | 0.00 | 0.00 | 67 | 1018.5 |
| 20260508171046 | 15 | 0 | 3.2 | 11.3 | 0.00 | 0.00 | 0.00 | 67 | 1018.4 |
| 20260508170545 | 15 | 0 | 0.0 | 6.4 | 0.00 | 0.00 | 0.00 | 66 | 1018.4 |
| 20260508170051 | 15 | 0 | 0.0 | 9.7 | 0.00 | 0.00 | 0.00 | 65 | 1018.4 |
| 20260508165544 | 15 | 0 | 1.6 | 9.7 | 0.00 | 0.00 | 0.00 | 65 | 1018.3 |
| 20260508165044 | 14 | 0 | 1.6 | 8.0 | 0.00 | 0.00 | 0.00 | 66 | 1018.4 |
| 20260508164548 | 15 | 0 | 0.0 | 14.5 | 0.00 | 0.00 | 0.00 | 66 | 1018.4 |
| 20260508164045 | 15 | 0 | 1.6 | 14.5 | 0.00 | 0.00 | 0.00 | 65 | 1018.4 |
| 20260508163544 | 15 | 0 | 1.6 | 14.5 | 0.00 | 0.00 | 0.00 | 65 | 1018.3 |
| 20260508163056 | 15 | 0 | 0.0 | 8.0 | 0.00 | 0.00 | 0.00 | 65 | 1018.4 |
| 20260508162547 | 15 | 0 | 1.6 | 8.0 | 0.00 | 0.00 | 0.00 | 64 | 1018.3 |
| 20260508162045 | 15 | 0 | 0.0 | 4.8 | 0.00 | 0.00 | 0.00 | 64 | 1018.4 |
| 20260508161559 | 15 | 0 | 0.0 | 8.0 | 0.00 | 0.00 | 0.00 | 63 | 1018.3 |
| 20260508161044 | 15 | 0 | 0.0 | 9.7 | 0.00 | 0.00 | 0.00 | 63 | 1018.4 |
| 20260508160547 | 15 | 26 | 0.0 | 11.3 | 0.00 | 0.00 | 0.00 | 63 | 1018.4 |
| 20260508160053 | 15 | 23 | 0.0 | 11.3 | 0.00 | 0.00 | 0.00 | 63 | 1018.4 |
| 20260508155545 | 15 | 0 | 1.6 | 9.7 | 0.00 | 0.00 | 0.00 | 61 | 1018.3 |
| 20260508155045 | 15 | 0 | 3.2 | 9.7 | 0.00 | 0.00 | 0.00 | 62 | 1018.4 |
| 20260508154549 | 15 | 0 | 0.0 | 6.4 | 0.00 | 0.00 | 0.00 | 63 | 1018.3 |
| 20260508154044 | 15 | 0 | 0.0 | 1.6 | 0.00 | 0.00 | 0.00 | 61 | 1018.4 |
| 20260508153543 | 15 | 0 | 0.0 | 3.2 | 0.00 | 0.00 | 0.00 | 62 | 1018.5 |
| 20260508153050 | 15 | 0 | 0.0 | 6.4 | 0.00 | 0.00 | 0.00 | 64 | 1018.4 |
| 20260508152544 | 15 | 0 | 0.0 | 6.4 | 0.00 | 0.00 | 0.00 | 62 | 1018.5 |
| 20260508152044 | 15 | 40 | 0.0 | 6.4 | 0.00 | 0.00 | 0.00 | 62 | 1018.5 |
| 20260508151558 | 15 | 0 | 0.0 | 1.6 | 0.00 | 0.00 | 0.00 | 63 | 1018.6 |
| 20260508151042 | 15 | 0 | 0.0 | 8.0 | 0.00 | 0.00 | 0.00 | 62 | 1018.6 |
| 20260508150547 | 15 | 36 | 0.0 | 8.0 | 0.00 | 0.00 | 0.00 | 64 | 1018.6 |
| 20260508150055 | 15 | 0 | 0.0 | 6.4 | 0.00 | 0.00 | 0.00 | 61 | 1018.5 |
| 20260508145544 | 15 | 0 | 0.0 | 0.0 | 0.00 | 0.00 | 0.00 | 61 | 1018.5 |
| 20260508145041 | 15 | 0 | 0.0 | 6.4 | 0.00 | 0.00 | 0.00 | 62 | 1018.6 |
| 20260508144553 | 15 | 0 | 0.0 | 9.7 | 0.00 | 0.00 | 0.00 | 62 | 1018.6 |
| 20260508144045 | 15 | 0 | 0.0 | 9.7 | 0.00 | 0.00 | 0.00 | 63 | 1018.6 |
| 20260508143541 | 15 | 336 | 0.0 | 3.2 | 0.00 | 0.00 | 0.00 | 62 | 1018.5 |
| 20260508143057 | 15 | 0 | 0.0 | 3.2 | 0.00 | 0.00 | 0.00 | 61 | 1018.5 |
| 20260508142545 | 15 | 34 | 0.0 | 14.5 | 0.00 | 0.00 | 0.00 | 61 | 1018.6 |
| 20260508142045 | 15 | 0 | 0.0 | 14.5 | 0.00 | 0.00 | 0.00 | 60 | 1018.7 |
| 20260508141553 | 15 | 34 | 1.6 | 14.5 | 0.00 | 0.00 | 0.00 | 59 | 1018.6 |
| 20260508141042 | 15 | 0 | 0.0 | 8.0 | 0.00 | 0.00 | 0.00 | 60 | 1018.6 |
| 20260508140544 | 15 | 0 | 0.0 | 8.0 | 0.00 | 0.00 | 0.00 | 60 | 1018.7 |
| 20260508140051 | 16 | 0 | 3.2 | 8.0 | 0.00 | 0.00 | 0.00 | 60 | 1018.7 |
| 20260508135545 | 16 | 0 | 0.0 | 6.4 | 0.00 | 0.00 | 0.00 | 61 | 1018.7 |
| 20260508135041 | 15 | 0 | 0.0 | 4.8 | 0.00 | 0.00 | 0.00 | 60 | 1018.6 |
| 20260508134606 | 15 | 0 | 0.0 | 4.8 | 0.00 | 0.00 | 0.00 | 58 | 1018.6 |
| 20260508134044 | 15 | 0 | 0.0 | 6.4 | 0.00 | 0.00 | 0.00 | 59 | 1018.7 |
| 20260508133541 | 15 | 0 | 0.0 | 9.7 | 0.00 | 0.00 | 0.00 | 59 | 1018.5 |
| 20260508133110 | 15 | 0 | 1.6 | 9.7 | 0.00 | 0.00 | 0.00 | 58 | 1018.6 |
| 20260508132541 | 15 | 0 | 0.0 | 6.4 | 0.00 | 0.00 | 0.00 | 59 | 1018.7 |
| 20260508132044 | 15 | 0 | 0.0 | 8.0 | 0.00 | 0.00 | 0.00 | 58 | 1018.5 |
| 20260508131551 | 15 | 0 | 0.0 | 8.0 | 0.00 | 0.00 | 0.00 | 59 | 1018.5 |
| 20260508131044 | 15 | 15 | 0.0 | 11.3 | 0.00 | 0.00 | 0.00 | 58 | 1018.5 |
| 20260508130546 | 16 | 0 | 1.6 | 11.3 | 0.00 | 0.00 | 0.00 | 60 | 1018.5 |
| 20260508130049 | 16 | 349 | 0.0 | 12.9 | 0.00 | 0.00 | 0.00 | 59 | 1018.6 |
| 20260508125545 | 16 | 0 | 1.6 | 16.1 | 0.00 | 0.00 | 0.00 | 59 | 1018.6 |
| 20260508125045 | 16 | 0 | 1.6 | 16.1 | 0.00 | 0.00 | 0.00 | 58 | 1018.6 |
| 20260508124552 | 17 | 0 | 3.2 | 16.1 | 0.00 | 0.00 | 0.00 | 58 | 1018.6 |
| 20260508124044 | 16 | 17 | 0.0 | 12.9 | 0.00 | 0.00 | 0.00 | 57 | 1018.7 |
| 20260508123542 | 16 | 0 | 0.0 | 12.9 | 0.00 | 0.00 | 0.00 | 54 | 1018.6 |
| 20260508123101 | 16 | 0 | 0.0 | 12.9 | 0.00 | 0.00 | 0.00 | 56 | 1018.7 |
| 20260508122544 | 16 | 348 | 0.0 | 17.7 | 0.00 | 0.00 | 0.00 | 60 | 1018.8 |
| 20260508122044 | 16 | 360 | 1.6 | 17.7 | 0.00 | 0.00 | 0.00 | 58 | 1018.8 |
| 20260508121557 | 16 | 347 | 3.2 | 17.7 | 0.00 | 0.00 | 0.00 | 62 | 1018.7 |
| 20260508121044 | 16 | 0 | 0.0 | 9.7 | 0.00 | 0.00 | 0.00 | 58 | 1018.8 |
| 20260508120541 | 16 | 0 | 0.0 | 9.7 | 0.00 | 0.00 | 0.00 | 56 | 1018.6 |
| 20260508120055 | 16 | 0 | 1.6 | 9.7 | 0.00 | 0.00 | 0.00 | 59 | 1018.8 |
| 20260508115544 | 16 | 0 | 1.6 | 11.3 | 0.00 | 0.00 | 0.00 | 60 | 1018.8 |
| 20260508115043 | 16 | 296 | 1.6 | 11.3 | 0.00 | 0.00 | 0.00 | 59 | 1018.8 |
| 20260508114554 | 16 | 0 | 0.0 | 9.7 | 0.00 | 0.00 | 0.00 | 60 | 1018.7 |
| 20260508114046 | 16 | 0 | 0.0 | 9.7 | 0.00 | 0.00 | 0.00 | 59 | 1018.8 |
| 20260508113544 | 16 | 0 | 3.2 | 9.7 | 0.00 | 0.00 | 0.00 | 62 | 1018.8 |
| 20260508113105 | 16 | 0 | 0.0 | 14.5 | 0.00 | 0.00 | 0.00 | 63 | 1018.8 |
| 20260508112545 | 16 | 0 | 1.6 | 14.5 | 0.00 | 0.00 | 0.00 | 61 | 1018.8 |
| 20260508112044 | 16 | 0 | 0.0 | 9.7 | 0.00 | 0.00 | 0.00 | 64 | 1018.9 |
| 20260508111556 | 16 | 0 | 1.6 | 12.9 | 0.00 | 0.00 | 0.00 | 63 | 1018.9 |
| 20260508111045 | 16 | 0 | 0.0 | 12.9 | 0.00 | 0.00 | 0.00 | 65 | 1018.8 |
| 20260508110544 | 16 | 348 | 0.0 | 12.9 | 0.00 | 0.00 | 0.00 | 64 | 1019.0 |
| 20260508110058 | 16 | 0 | 0.0 | 12.9 | 0.00 | 0.00 | 0.00 | 65 | 1018.9 |
| 20260508105542 | 16 | 0 | 4.8 | 14.5 | 0.00 | 0.00 | 0.00 | 68 | 1018.9 |
| 20260508105044 | 15 | 0 | 1.6 | 14.5 | 0.00 | 0.00 | 0.00 | 68 | 1018.9 |
| 20260508104553 | 15 | 351 | 3.2 | 14.5 | 0.00 | 0.00 | 0.00 | 67 | 1019.0 |
| 20260508104044 | 15 | 0 | 4.8 | 14.5 | 0.00 | 0.00 | 0.00 | 67 | 1019.0 |
| 20260508103541 | 15 | 0 | 1.6 | 8.0 | 0.00 | 0.00 | 0.00 | 66 | 1019.0 |
| 20260508103049 | 16 | 0 | 0.0 | 6.4 | 0.00 | 0.00 | 0.00 | 67 | 1019.0 |
| 20260508102541 | 15 | 0 | 0.0 | 6.4 | 0.00 | 0.00 | 0.00 | 64 | 1019.1 |
| 20260508102045 | 15 | 31 | 0.0 | 1.6 | 0.00 | 0.00 | 0.00 | 64 | 1018.9 |
| 20260508101552 | 15 | 0 | 0.0 | 8.0 | 0.00 | 0.00 | 0.00 | 63 | 1019.0 |
| 20260508101043 | 15 | 0 | 1.6 | 9.7 | 0.00 | 0.00 | 0.00 | 63 | 1019.0 |
| 20260508100543 | 15 | 0 | 1.6 | 9.7 | 0.00 | 0.00 | 0.00 | 66 | 1019.0 |
| 20260508100052 | 15 | 0 | 0.0 | 8.0 | 0.00 | 0.00 | 0.00 | 65 | 1019.0 |
| 20260508095542 | 15 | 0 | 0.0 | 14.5 | 0.00 | 0.00 | 0.00 | 67 | 1019.0 |
| 20260508095045 | 14 | 0 | 0.0 | 14.5 | 0.00 | 0.00 | 0.00 | 65 | 1019.0 |
| 20260508094602 | 14 | 352 | 1.6 | 14.5 | 0.00 | 0.00 | 0.00 | 67 | 1019.1 |
| 20260508094044 | 15 | 0 | 0.0 | 9.7 | 0.00 | 0.00 | 0.00 | 67 | 1019.1 |
| 20260508093544 | 15 | 0 | 0.0 | 8.0 | 0.00 | 0.00 | 0.00 | 68 | 1019.1 |
| 20260508093054 | 15 | 0 | 1.6 | 8.0 | 0.00 | 0.00 | 0.00 | 67 | 1019.1 |
| 20260508092544 | 15 | 15 | 0.0 | 6.4 | 0.00 | 0.00 | 0.00 | 73 | 1019.1 |
| 20260508092044 | 14 | 0 | 0.0 | 6.4 | 0.00 | 0.00 | 0.00 | 72 | 1019.2 |
| 20260508091617 | 13 | 0 | 0.0 | 8.0 | 0.00 | 0.00 | 0.00 | 75 | 1019.1 |
| 20260508091043 | 13 | 0 | 0.0 | 8.0 | 0.00 | 0.00 | 0.00 | 74 | 1019.2 |
| 20260508090545 | 13 | 11 | 0.0 | 8.0 | 0.00 | 0.00 | 0.00 | 74 | 1019.2 |
| 20260508090059 | 13 | 5 | 0.0 | 8.0 | 0.00 | 0.00 | 0.00 | 74 | 1019.1 |
| 20260508085543 | 13 | 5 | 0.0 | 6.4 | 0.00 | 0.00 | 0.00 | 76 | 1019.2 |
| 20260508085045 | 12 | 360 | 1.6 | 16.1 | 0.00 | 0.00 | 0.00 | 78 | 1019.1 |
| 20260508084552 | 12 | 352 | 0.0 | 16.1 | 0.00 | 0.00 | 0.00 | 80 | 1019.2 |
| 20260508084043 | 12 | 0 | 3.2 | 16.1 | 0.00 | 0.00 | 0.00 | 79 | 1019.1 |
| 20260508083543 | 12 | 0 | 0.0 | 6.4 | 0.00 | 0.00 | 0.00 | 78 | 1019.2 |
| 20260508083053 | 13 | 0 | 1.6 | 6.4 | 0.00 | 0.00 | 0.00 | 79 | 1019.2 |
| 20260508082542 | 13 | 0 | 0.0 | 12.9 | 0.00 | 0.00 | 0.00 | 78 | 1019.2 |
| 20260508082045 | 13 | 0 | 0.0 | 12.9 | 0.00 | 0.00 | 0.00 | 79 | 1019.2 |
| 20260508081552 | 12 | 20 | 0.0 | 6.4 | 0.00 | 0.00 | 0.00 | 79 | 1019.3 |
| 20260508081042 | 12 | 0 | 0.0 | 0.0 | 0.00 | 0.00 | 0.00 | 78 | 1019.2 |
| 20260508080542 | 12 | 0 | 0.0 | 0.0 | 0.00 | 0.00 | 0.00 | 78 | 1019.2 |
| 20260508080052 | 12 | 0 | 0.0 | 0.0 | 0.00 | 0.00 | 0.00 | 80 | 1019.2 |
| 20260508075541 | 12 | 0 | 0.0 | 0.0 | 0.00 | 0.00 | 0.00 | 80 | 1019.2 |
| 20260508075042 | 12 | 0 | 0.0 | 0.0 | 0.00 | 0.00 | 0.00 | 83 | 1019.1 |
| 20260508074553 | 11 | 0 | 0.0 | 0.0 | 0.00 | 0.00 | 0.00 | 82 | 1019.0 |
| 20260508074043 | 11 | 0 | 0.0 | 0.0 | 0.00 | 0.00 | 0.00 | 83 | 1019.1 |
| 20260508073542 | 11 | 0 | 0.0 | 0.0 | 0.00 | 0.00 | 0.00 | 85 | 1019.2 |
| 20260508073057 | 11 | 0 | 0.0 | 0.0 | 0.00 | 0.00 | 0.00 | 87 | 1019.3 |
| 20260508072542 | 10 | 0 | 0.0 | 0.0 | 0.00 | 0.00 | 0.00 | 88 | 1019.2 |
| 20260508072043 | 10 | 0 | 0.0 | 0.0 | 0.00 | 0.00 | 0.00 | 90 | 1019.3 |
| 20260508071556 | 10 | 0 | 0.0 | 0.0 | 0.00 | 0.00 | 0.00 | 91 | 1019.2 |
| 20260508071041 | 10 | 0 | 0.0 | 0.0 | 0.00 | 0.00 | 0.00 | 93 | 1019.2 |
| 20260508070543 | 9 | 0 | 0.0 | 0.0 | 0.00 | 0.00 | 0.00 | 94 | 1019.1 |
| 20260508070100 | 8 | 0 | 0.0 | 0.0 | 0.00 | 0.00 | 0.00 | 95 | 1019.2 |
| 20260508065543 | 8 | 0 | 0.0 | 0.0 | 0.00 | 0.00 | 0.00 | 96 | 1019.2 |
| 20260508065042 | 8 | 0 | 0.0 | 0.0 | 0.00 | 0.00 | 0.00 | 96 | 1019.1 |
| 20260508064555 | 7 | 0 | 0.0 | 0.0 | 0.00 | 0.00 | 0.00 | 96 | 1018.9 |
| 20260508064042 | 7 | 0 | 0.0 | 0.0 | 0.00 | 0.00 | 0.00 | 96 | 1018.9 |
| 20260508063542 | 7 | 0 | 0.0 | 0.0 | 0.00 | 0.00 | 0.00 | 97 | 1018.8 |
| 20260508063120 | 6 | 0 | 0.0 | 0.0 | 0.00 | 0.00 | 0.00 | 96 | 1018.7 |
| 20260508062542 | 6 | 0 | 0.0 | 0.0 | 0.00 | 0.00 | 0.00 | 96 | 1018.7 |
| 20260508062046 | 6 | 0 | 0.0 | 0.0 | 0.00 | 0.00 | 0.00 | 96 | 1018.7 |
| 20260508061553 | 6 | 0 | 0.0 | 0.0 | 0.00 | 0.00 | 0.00 | 96 | 1018.6 |
| 20260508061046 | 5 | 0 | 0.0 | 0.0 | 0.00 | 0.00 | 0.00 | 96 | 1018.6 |
| 20260508060546 | 5 | 0 | 0.0 | 0.0 | 0.00 | 0.00 | 0.00 | 96 | 1018.8 |
| 20260508060055 | 5 | 0 | 0.0 | 0.0 | 0.00 | 0.00 | 0.00 | 96 | 1018.7 |
| 20260508055543 | 5 | 0 | 0.0 | 0.0 | 0.00 | 0.00 | 0.00 | 96 | 1018.7 |
| 20260508055043 | 5 | 0 | 0.0 | 0.0 | 0.00 | 0.00 | 0.00 | 96 | 1018.7 |
| 20260508054552 | 5 | 0 | 0.0 | 0.0 | 0.00 | 0.00 | 0.00 | 96 | 1018.6 |
| 20260508054043 | 5 | 0 | 0.0 | 0.0 | 0.00 | 0.00 | 0.00 | 96 | 1018.6 |
| 20260508053543 | 5 | 0 | 0.0 | 0.0 | 0.00 | 0.00 | 0.00 | 96 | 1018.6 |
| 20260508053102 | 5 | 0 | 0.0 | 0.0 | 0.00 | 0.00 | 0.00 | 96 | 1018.6 |
| 20260508052545 | 5 | 0 | 0.0 | 0.0 | 0.00 | 0.00 | 0.00 | 96 | 1018.6 |
| 20260508052046 | 4 | 0 | 0.0 | 0.0 | 0.00 | 0.00 | 0.00 | 96 | 1018.6 |
| 20260508051618 | 4 | 0 | 0.0 | 0.0 | 0.00 | 0.00 | 0.00 | 96 | 1018.6 |
| 20260508051047 | 4 | 0 | 0.0 | 0.0 | 0.00 | 0.00 | 0.00 | 96 | 1018.5 |
| 20260508050544 | 4 | 0 | 0.0 | 0.0 | 0.00 | 0.00 | 0.00 | 96 | 1018.6 |
| 20260508050054 | 3 | 0 | 0.0 | 0.0 | 0.00 | 0.00 | 0.00 | 96 | 1018.5 |
| 20260508045546 | 3 | 0 | 0.0 | 0.0 | 0.00 | 0.00 | 0.00 | 96 | 1018.5 |
| 20260508045048 | 3 | 0 | 0.0 | 0.0 | 0.00 | 0.00 | 0.00 | 96 | 1018.4 |
| 20260508044554 | 3 | 0 | 0.0 | 0.0 | 0.00 | 0.00 | 0.00 | 96 | 1018.3 |
| 20260508044046 | 3 | 0 | 0.0 | 0.0 | 0.00 | 0.00 | 0.00 | 96 | 1018.3 |
| 20260508043543 | 2 | 0 | 0.0 | 0.0 | 0.00 | 0.00 | 0.00 | 96 | 1018.2 |
| 20260508043058 | 2 | 0 | 0.0 | 0.0 | 0.00 | 0.00 | 0.00 | 96 | 1018.2 |
| 20260508042544 | 2 | 0 | 0.0 | 0.0 | 0.00 | 0.00 | 0.00 | 96 | 1018.2 |
| 20260508042045 | 2 | 0 | 0.0 | 0.0 | 0.00 | 0.00 | 0.00 | 96 | 1018.3 |
| 20260508041553 | 2 | 0 | 0.0 | 0.0 | 0.00 | 0.00 | 0.00 | 96 | 1018.2 |
| 20260508041047 | 2 | 0 | 0.0 | 0.0 | 0.00 | 0.00 | 0.00 | 96 | 1018.3 |
| 20260508040545 | 2 | 0 | 0.0 | 0.0 | 0.00 | 0.00 | 0.00 | 96 | 1018.3 |
| 20260508040056 | 2 | 0 | 0.0 | 0.0 | 0.00 | 0.00 | 0.00 | 96 | 1018.3 |
| 20260508035546 | 2 | 0 | 0.0 | 0.0 | 0.00 | 0.00 | 0.00 | 96 | 1018.3 |
| 20260508035046 | 2 | 0 | 0.0 | 0.0 | 0.00 | 0.00 | 0.00 | 96 | 1018.3 |
| 20260508034552 | 3 | 0 | 0.0 | 0.0 | 0.00 | 0.00 | 0.00 | 96 | 1018.2 |
| 20260508034043 | 3 | 0 | 0.0 | 0.0 | 0.00 | 0.00 | 0.00 | 96 | 1018.3 |
| 20260508033545 | 2 | 0 | 0.0 | 0.0 | 0.00 | 0.00 | 0.00 | 96 | 1018.3 |
| 20260508033053 | 2 | 0 | 0.0 | 0.0 | 0.00 | 0.00 | 0.00 | 96 | 1018.4 |
| 20260508032546 | 2 | 0 | 0.0 | 0.0 | 0.00 | 0.00 | 0.00 | 96 | 1018.3 |
| 20260508032046 | 3 | 0 | 0.0 | 0.0 | 0.00 | 0.00 | 0.00 | 96 | 1018.3 |
| 20260508031551 | 3 | 0 | 0.0 | 0.0 | 0.00 | 0.00 | 0.00 | 96 | 1018.2 |
| 20260508031045 | 3 | 0 | 0.0 | 0.0 | 0.00 | 0.00 | 0.00 | 96 | 1018.2 |
| 20260508030545 | 3 | 0 | 0.0 | 0.0 | 0.00 | 0.00 | 0.00 | 95 | 1018.2 |
| 20260508030056 | 3 | 0 | 0.0 | 0.0 | 0.00 | 0.00 | 0.00 | 96 | 1018.2 |
| 20260508025544 | 3 | 0 | 0.0 | 0.0 | 0.00 | 0.00 | 0.00 | 96 | 1018.1 |
| 20260508025044 | 3 | 0 | 0.0 | 0.0 | 0.00 | 0.00 | 0.00 | 95 | 1018.2 |
| 20260508024551 | 3 | 0 | 0.0 | 0.0 | 0.00 | 0.00 | 0.00 | 95 | 1018.2 |
| 20260508024047 | 3 | 0 | 0.0 | 0.0 | 0.00 | 0.00 | 0.00 | 96 | 1018.2 |
| 20260508023546 | 3 | 0 | 0.0 | 0.0 | 0.00 | 0.00 | 0.00 | 95 | 1018.1 |
| 20260508023053 | 3 | 0 | 0.0 | 0.0 | 0.00 | 0.00 | 0.00 | 95 | 1018.2 |
| 20260508022545 | 3 | 0 | 0.0 | 0.0 | 0.00 | 0.00 | 0.00 | 95 | 1018.2 |
| 20260508022048 | 3 | 0 | 0.0 | 0.0 | 0.00 | 0.00 | 0.00 | 96 | 1018.3 |
| 20260508021555 | 3 | 0 | 0.0 | 0.0 | 0.00 | 0.00 | 0.00 | 96 | 1018.3 |
| 20260508021043 | 3 | 0 | 0.0 | 0.0 | 0.00 | 0.00 | 0.00 | 96 | 1018.3 |
| 20260508020543 | 3 | 0 | 0.0 | 0.0 | 0.00 | 0.00 | 0.00 | 96 | 1018.3 |
| 20260508020105 | 3 | 0 | 0.0 | 0.0 | 0.00 | 0.00 | 0.00 | 95 | 1018.3 |
| 20260508015543 | 3 | 0 | 0.0 | 0.0 | 0.00 | 0.03 | 0.00 | 95 | 1018.3 |
| 20260508015045 | 3 | 0 | 0.0 | 0.0 | 0.00 | 0.03 | 0.00 | 95 | 1018.2 |
| 20260508014552 | 4 | 0 | 0.0 | 0.0 | 0.00 | 0.03 | 0.00 | 95 | 1018.2 |
| 20260508014047 | 4 | 0 | 0.0 | 0.0 | 0.00 | 0.03 | 0.00 | 95 | 1018.3 |
| 20260508013546 | 4 | 0 | 0.0 | 0.0 | 0.00 | 0.03 | 0.00 | 95 | 1018.2 |
| 20260508013053 | 4 | 0 | 0.0 | 0.0 | 0.00 | 0.03 | 0.00 | 95 | 1018.2 |
| 20260508012544 | 4 | 0 | 0.0 | 0.0 | 0.00 | 0.03 | 0.00 | 95 | 1018.3 |
| 20260508012046 | 4 | 0 | 0.0 | 0.0 | 0.00 | 0.03 | 0.00 | 95 | 1018.2 |
| 20260508011556 | 4 | 0 | 0.0 | 0.0 | 0.00 | 0.03 | 0.00 | 95 | 1018.2 |
| 20260508011043 | 4 | 0 | 0.0 | 0.0 | 0.00 | 0.03 | 0.00 | 95 | 1018.1 |
| 20260508010543 | 5 | 0 | 0.0 | 0.0 | 0.00 | 0.03 | 0.00 | 95 | 1018.2 |
| 20260508010111 | 5 | 0 | 0.0 | 0.0 | 0.00 | 0.03 | 0.00 | 95 | 1018.2 |